Time,TemperatureF,DewpointF,PressureIn,WindDirection,WindDirectionDegrees,WindSpeedMPH,WindSpeedGustMPH,Humidity,HourlyPrecipIn,Conditions,Clouds,dailyrainin,SoftwareType,DateUTC
2013-10-11 00:01:00,32.0,28.0,30.62,NW,315,0.0,0.0,85,0.00,,---,0.00,VWS V14.01,2013-10-11 07:01:00,
2013-10-11 00:06:00,31.8,28.1,30.62,NW,315,0.0,0.0,86,0.00,,---,0.00,VWS V14.01,2013-10-11 07:06:00,
2013-10-11 00:11:00,31.6,27.9,30.62,NW,315,0.0,0.0,86,0.00,,---,0.00,VWS V14.01,2013-10-11 07:11:00,
2013-10-11 00:16:00,31.6,27.9,30.62,NW,315,0.0,0.0,86,0.00,,---,0.00,VWS V14.01,2013-10-11 07:16:00,
2013-10-11 00:21:00,31.6,28.2,30.62,NW,315,0.0,0.0,87,0.00,,---,0.00,VWS V14.01,2013-10-11 07:21:00,
2013-10-11 00:26:00,31.6,28.2,30.62,NW,315,0.0,0.0,87,0.00,,---,0.00,VWS V14.01,2013-10-11 07:26:00,
2013-10-11 00:31:00,31.6,28.2,30.62,NW,315,0.0,0.0,87,0.00,,---,0.00,VWS V14.01,2013-10-11 07:31:00,
2013-10-11 00:36:00,31.6,28.2,30.62,NW,315,0.0,0.0,87,0.00,,---,0.00,VWS V14.01,2013-10-11 07:36:00,
2013-10-11 00:41:00,31.5,28.0,30.62,NW,315,0.0,2.7,87,0.00,,---,0.00,VWS V14.01,2013-10-11 07:41:00,
2013-10-11 00:46:00,31.8,28.4,30.62,NW,315,0.0,0.0,87,0.00,,---,0.00,VWS V14.01,2013-10-11 07:46:00,
2013-10-11 00:51:00,31.6,28.2,30.62,NW,315,0.0,0.0,87,0.00,,---,0.00,VWS V14.01,2013-10-11 07:51:00,
2013-10-11 00:56:00,31.5,28.0,30.62,NW,315,0.0,2.2,87,0.00,,---,0.00,VWS V14.01,2013-10-11 07:56:00,
2013-10-11 01:01:00,31.5,28.0,30.62,NW,315,0.0,2.7,87,0.00,,---,0.00,VWS V14.01,2013-10-11 08:01:00,
2013-10-11 01:06:00,31.6,28.2,30.62,NW,315,0.0,0.0,87,0.00,,---,0.00,VWS V14.01,2013-10-11 08:06:00,
2013-10-11 01:11:00,31.8,28.7,30.62,NW,315,0.0,0.0,88,0.00,,---,0.00,VWS V14.01,2013-10-11 08:11:00,
2013-10-11 01:16:00,31.8,28.7,30.62,NW,315,0.0,0.0,88,0.00,,---,0.00,VWS V14.01,2013-10-11 08:16:00,
2013-10-11 01:21:00,31.6,28.5,30.62,NW,315,0.0,0.0,88,0.00,,---,0.00,VWS V14.01,2013-10-11 08:21:00,
2013-10-11 01:26:00,31.6,28.5,30.62,NW,315,0.0,0.0,88,0.00,,---,0.00,VWS V14.01,2013-10-11 08:26:00,
2013-10-11 01:31:00,31.3,28.1,30.62,NW,315,0.0,0.0,88,0.00,,---,0.00,VWS V14.01,2013-10-11 08:31:00,
2013-10-11 01:36:00,31.3,28.4,30.62,NW,315,0.0,0.0,89,0.00,,---,0.00,VWS V14.01,2013-10-11 08:36:00,
2013-10-11 01:41:00,31.3,28.4,30.62,NW,315,0.0,0.0,89,0.00,,---,0.00,VWS V14.01,2013-10-11 08:41:00,
2013-10-11 01:46:00,31.3,28.7,30.62,NW,315,0.0,0.0,90,0.00,,---,0.00,VWS V14.01,2013-10-11 08:46:00,
2013-10-11 01:51:00,31.5,28.9,30.62,NW,315,0.0,0.0,90,0.00,,---,0.00,VWS V14.01,2013-10-11 08:51:00,
2013-10-11 01:56:00,31.5,29.1,30.65,NW,315,0.0,0.0,91,0.00,,---,0.00,VWS V14.01,2013-10-11 08:56:00,
2013-10-11 02:01:00,31.1,28.8,30.65,NW,315,0.0,0.0,91,0.00,,---,0.00,VWS V14.01,2013-10-11 09:01:00,
2013-10-11 02:06:00,30.7,28.4,30.65,NW,315,0.0,0.0,91,0.00,,---,0.00,VWS V14.01,2013-10-11 09:06:00,
2013-10-11 02:11:00,30.7,28.4,30.65,NW,315,0.0,0.0,91,0.00,,---,0.00,VWS V14.01,2013-10-11 09:11:00,
2013-10-11 02:16:00,30.7,28.7,30.65,NW,315,0.0,0.0,92,0.00,,---,0.00,VWS V14.01,2013-10-11 09:16:00,
2013-10-11 02:21:00,30.7,29.0,30.65,NW,315,0.0,0.0,93,0.00,,---,0.00,VWS V14.01,2013-10-11 09:21:00,
2013-10-11 02:26:00,30.6,29.0,30.65,NW,315,0.0,0.0,94,0.00,,---,0.00,VWS V14.01,2013-10-11 09:26:00,
2013-10-11 02:31:00,30.6,29.0,30.65,NW,315,0.0,0.0,94,0.00,,---,0.00,VWS V14.01,2013-10-11 09:31:00,
2013-10-11 02:36:00,30.7,29.5,30.65,NW,315,0.0,0.0,95,0.00,,---,0.00,VWS V14.01,2013-10-11 09:36:00,
2013-10-11 02:41:00,30.4,29.4,30.65,NW,315,0.0,0.0,96,0.00,,---,0.00,VWS V14.01,2013-10-11 09:41:00,
2013-10-11 02:46:00,30.6,29.6,30.65,NW,315,0.0,0.0,96,0.00,,---,0.00,VWS V14.01,2013-10-11 09:46:00,
2013-10-11 02:51:00,31.1,30.4,30.65,NW,315,0.0,0.0,97,0.00,,---,0.00,VWS V14.01,2013-10-11 09:51:00,
2013-10-11 02:56:00,31.1,30.4,30.65,NW,315,0.0,0.0,97,0.00,,---,0.00,VWS V14.01,2013-10-11 09:56:00,
2013-10-11 03:01:00,31.3,30.8,30.65,NW,315,0.0,0.0,98,0.00,,---,0.00,VWS V14.01,2013-10-11 10:01:00,
2013-10-11 03:06:00,31.1,30.6,30.65,NW,315,0.0,0.0,98,0.00,,---,0.00,VWS V14.01,2013-10-11 10:06:00,
2013-10-11 03:11:00,30.9,30.4,30.65,NW,315,0.0,0.0,98,0.00,,---,0.00,VWS V14.01,2013-10-11 10:11:00,
2013-10-11 03:16:00,30.6,30.1,30.65,NW,315,0.0,0.0,98,0.00,,---,0.00,VWS V14.01,2013-10-11 10:16:00,
2013-10-11 03:21:00,30.2,29.7,30.65,NW,315,0.0,0.0,98,0.00,,---,0.00,VWS V14.01,2013-10-11 10:21:00,
2013-10-11 03:26:00,29.8,29.3,30.65,NW,315,0.0,0.0,98,0.00,,---,0.00,VWS V14.01,2013-10-11 10:26:00,
2013-10-11 03:31:00,30.2,29.7,30.65,NW,315,0.0,0.0,98,0.00,,---,0.00,VWS V14.01,2013-10-11 10:31:00,
2013-10-11 03:36:00,30.9,30.4,30.65,NW,315,0.0,0.0,98,0.00,,---,0.00,VWS V14.01,2013-10-11 10:36:00,
2013-10-11 03:41:00,31.1,30.6,30.65,NW,315,0.0,0.0,98,0.00,,---,0.00,VWS V14.01,2013-10-11 10:41:00,
2013-10-11 03:46:00,30.9,30.4,30.65,NW,315,0.0,0.0,98,0.00,,---,0.00,VWS V14.01,2013-10-11 10:46:00,
2013-10-11 03:51:00,30.2,29.7,30.65,NW,315,0.0,0.0,98,0.00,,---,0.00,VWS V14.01,2013-10-11 10:51:00,
2013-10-11 03:56:00,29.5,29.0,30.65,NW,315,0.0,0.0,98,0.00,,---,0.00,VWS V14.01,2013-10-11 10:56:00,
2013-10-11 04:01:00,29.5,29.0,30.65,NW,315,0.0,0.0,98,0.00,,---,0.00,VWS V14.01,2013-10-11 11:01:00,
2013-10-11 04:06:00,30.2,29.7,30.65,NW,315,0.0,0.0,98,0.00,,---,0.00,VWS V14.01,2013-10-11 11:06:00,
2013-10-11 04:11:00,30.6,30.1,30.65,NW,315,0.0,0.0,98,0.00,,---,0.00,VWS V14.01,2013-10-11 11:11:00,
2013-10-11 04:16:00,30.0,29.5,30.65,NW,315,0.0,0.0,98,0.00,,---,0.00,VWS V14.01,2013-10-11 11:16:00,
2013-10-11 04:21:00,29.5,29.0,30.65,NW,315,0.0,0.0,98,0.00,,---,0.00,VWS V14.01,2013-10-11 11:21:00,
2013-10-11 04:26:00,29.3,28.8,30.65,NW,315,0.0,0.0,98,0.00,,---,0.00,VWS V14.01,2013-10-11 11:26:00,
2013-10-11 04:31:00,29.3,28.8,30.65,NW,315,0.0,0.0,98,0.00,,---,0.00,VWS V14.01,2013-10-11 11:31:00,
2013-10-11 04:36:00,29.5,29.0,30.65,NW,315,0.0,0.0,98,0.00,,---,0.00,VWS V14.01,2013-10-11 11:36:00,
2013-10-11 04:41:00,29.1,28.6,30.62,NW,315,0.0,0.0,98,0.00,,---,0.00,VWS V14.01,2013-10-11 11:41:00,
2013-10-11 04:46:00,28.6,28.1,30.62,NW,315,0.0,0.0,98,0.00,,---,0.00,VWS V14.01,2013-10-11 11:46:00,
2013-10-11 04:51:00,28.4,27.9,30.62,NW,315,0.0,0.0,98,0.00,,---,0.00,VWS V14.01,2013-10-11 11:51:00,
2013-10-11 04:56:00,28.4,27.9,30.65,NW,315,0.0,0.0,98,0.00,,---,0.00,VWS V14.01,2013-10-11 11:56:00,
2013-10-11 05:01:00,28.2,27.7,30.65,NW,315,0.0,0.0,98,0.00,,---,0.00,VWS V14.01,2013-10-11 12:01:00,
2013-10-11 05:06:00,28.2,27.7,30.65,NW,315,0.0,0.0,98,0.00,,---,0.00,VWS V14.01,2013-10-11 12:06:00,
2013-10-11 05:11:00,28.2,27.7,30.65,NW,315,0.0,0.0,98,0.00,,---,0.00,VWS V14.01,2013-10-11 12:11:00,
2013-10-11 05:16:00,28.4,27.9,30.65,NW,315,0.0,0.0,98,0.00,,---,0.00,VWS V14.01,2013-10-11 12:16:00,
2013-10-11 05:21:00,28.6,28.1,30.65,NW,315,0.0,0.0,98,0.00,,---,0.00,VWS V14.01,2013-10-11 12:21:00,
2013-10-11 05:26:00,28.6,28.1,30.65,NW,315,0.0,0.0,98,0.00,,---,0.00,VWS V14.01,2013-10-11 12:26:00,
2013-10-11 05:31:00,28.9,28.5,30.65,NW,315,0.0,0.0,98,0.00,,---,0.00,VWS V14.01,2013-10-11 12:31:00,
2013-10-11 05:36:00,28.9,28.5,30.65,NW,315,0.0,0.0,98,0.00,,---,0.00,VWS V14.01,2013-10-11 12:36:00,
2013-10-11 05:41:00,28.6,28.1,30.65,NW,315,0.0,0.0,98,0.00,,---,0.00,VWS V14.01,2013-10-11 12:41:00,
2013-10-11 05:46:00,28.4,27.9,30.65,NW,315,0.0,0.0,98,0.00,,---,0.00,VWS V14.01,2013-10-11 12:46:00,
2013-10-11 05:51:00,28.9,28.5,30.65,NW,315,0.0,0.0,98,0.00,,---,0.00,VWS V14.01,2013-10-11 12:51:00,
2013-10-11 05:56:00,29.5,29.0,30.65,NW,315,0.0,0.0,98,0.00,,---,0.00,VWS V14.01,2013-10-11 12:56:00,
2013-10-11 06:01:00,28.6,28.1,30.65,NW,315,0.0,0.0,98,0.00,,---,0.00,VWS V14.01,2013-10-11 13:01:00,
2013-10-11 06:06:00,28.6,28.1,30.65,NW,315,0.0,0.0,98,0.00,,---,0.00,VWS V14.01,2013-10-11 13:06:00,
2013-10-11 06:11:00,28.8,28.3,30.65,NW,315,0.0,0.0,98,0.00,,---,0.00,VWS V14.01,2013-10-11 13:11:00,
2013-10-11 06:16:00,28.2,27.7,30.65,NW,315,0.0,0.0,98,0.00,,---,0.00,VWS V14.01,2013-10-11 13:16:00,
2013-10-11 06:21:00,27.9,27.4,30.65,NW,315,0.0,0.0,98,0.00,,---,0.00,VWS V14.01,2013-10-11 13:21:00,
2013-10-11 06:26:00,27.3,26.8,30.65,NW,315,0.0,0.0,98,0.00,,---,0.00,VWS V14.01,2013-10-11 13:26:00,
2013-10-11 06:31:00,27.0,26.5,30.65,NW,315,0.0,0.0,98,0.00,,---,0.00,VWS V14.01,2013-10-11 13:31:00,
2013-10-11 06:36:00,27.0,26.5,30.65,NW,315,0.0,0.0,98,0.00,,---,0.00,VWS V14.01,2013-10-11 13:36:00,
2013-10-11 06:41:00,27.1,26.6,30.65,NW,315,0.0,0.0,98,0.00,,---,0.00,VWS V14.01,2013-10-11 13:41:00,
2013-10-11 06:46:00,27.0,26.5,30.65,NW,315,0.0,0.0,98,0.00,,---,0.00,VWS V14.01,2013-10-11 13:46:00,
2013-10-11 06:51:00,27.0,26.5,30.65,NW,315,0.0,0.0,98,0.00,,---,0.00,VWS V14.01,2013-10-11 13:51:00,
2013-10-11 06:56:00,27.0,26.5,30.65,NW,315,0.0,0.0,98,0.00,,---,0.00,VWS V14.01,2013-10-11 13:56:00,
2013-10-11 07:01:00,26.8,26.3,30.65,NW,315,0.0,0.0,98,0.00,,---,0.00,VWS V14.01,2013-10-11 14:01:00,
2013-10-11 07:06:00,26.6,26.1,30.65,NW,315,0.0,0.0,98,0.00,,---,0.00,VWS V14.01,2013-10-11 14:06:00,
2013-10-11 07:11:00,27.1,26.6,30.65,NW,315,0.0,0.0,98,0.00,,---,0.00,VWS V14.01,2013-10-11 14:11:00,
2013-10-11 07:16:00,27.0,26.5,30.65,NW,315,0.0,0.0,98,0.00,,---,0.00,VWS V14.01,2013-10-11 14:16:00,
2013-10-11 07:21:00,27.0,26.5,30.65,NW,315,0.0,0.0,98,0.00,,---,0.00,VWS V14.01,2013-10-11 14:21:00,
2013-10-11 07:26:00,27.0,26.5,30.65,NW,315,0.0,0.0,98,0.00,,---,0.00,VWS V14.01,2013-10-11 14:26:00,
2013-10-11 07:31:00,27.3,26.8,30.65,NW,315,0.0,0.0,98,0.00,,---,0.00,VWS V14.01,2013-10-11 14:31:00,
2013-10-11 07:36:00,27.5,27.0,30.65,NW,315,0.0,0.0,98,0.00,,---,0.00,VWS V14.01,2013-10-11 14:36:00,
2013-10-11 07:41:00,27.9,27.4,30.65,NW,315,0.0,0.0,98,0.00,,---,0.00,VWS V14.01,2013-10-11 14:41:00,
2013-10-11 07:46:00,28.4,27.9,30.65,NW,315,0.0,0.0,98,0.00,,---,0.00,VWS V14.01,2013-10-11 14:46:00,
2013-10-11 07:51:00,28.8,28.3,30.65,NW,315,0.0,0.0,98,0.00,,---,0.00,VWS V14.01,2013-10-11 14:51:00,
2013-10-11 07:56:00,29.3,28.8,30.65,NW,315,0.0,0.0,98,0.00,,---,0.00,VWS V14.01,2013-10-11 14:56:00,
2013-10-11 08:01:00,29.3,28.8,30.65,NW,315,0.0,0.0,98,0.00,,---,0.00,VWS V14.01,2013-10-11 15:01:00,
2013-10-11 08:06:00,29.3,28.8,30.65,NW,315,0.0,0.0,98,0.00,,---,0.00,VWS V14.01,2013-10-11 15:06:00,
2013-10-11 08:11:00,29.3,28.8,30.65,NW,315,0.0,0.0,98,0.00,,---,0.00,VWS V14.01,2013-10-11 15:11:00,
2013-10-11 08:16:00,32.4,31.9,30.65,NW,315,0.0,0.0,98,0.00,,---,0.00,VWS V14.01,2013-10-11 15:16:00,
2013-10-11 08:21:00,32.7,32.2,30.65,NW,315,0.0,0.0,98,0.00,,---,0.00,VWS V14.01,2013-10-11 15:21:00,
2013-10-11 08:26:00,33.4,32.9,30.65,NW,315,0.0,0.0,98,0.00,,---,0.00,VWS V14.01,2013-10-11 15:26:00,
2013-10-11 08:31:00,34.2,33.7,30.65,NW,315,0.0,0.0,98,0.00,,---,0.00,VWS V14.01,2013-10-11 15:31:00,
2013-10-11 08:36:00,34.3,33.8,30.65,NW,315,0.0,0.0,98,0.00,,---,0.00,VWS V14.01,2013-10-11 15:36:00,
2013-10-11 08:41:00,34.7,34.2,30.65,NW,315,0.0,0.0,98,0.00,,---,0.00,VWS V14.01,2013-10-11 15:41:00,
2013-10-11 08:46:00,35.4,34.9,30.65,NW,315,0.0,0.0,98,0.00,,---,0.00,VWS V14.01,2013-10-11 15:46:00,
2013-10-11 08:51:00,36.3,35.8,30.65,NW,315,0.0,0.0,98,0.00,,---,0.00,VWS V14.01,2013-10-11 15:51:00,
2013-10-11 08:56:00,37.6,37.1,30.65,NW,315,0.0,0.0,98,0.00,,---,0.00,VWS V14.01,2013-10-11 15:56:00,
2013-10-11 09:01:00,38.7,38.2,30.65,NW,315,0.0,0.0,98,0.00,,---,0.00,VWS V14.01,2013-10-11 16:01:00,
2013-10-11 09:06:00,39.6,38.2,30.65,NW,315,0.0,0.0,95,0.00,,---,0.00,VWS V14.01,2013-10-11 16:06:00,
2013-10-11 09:11:00,39.9,37.2,30.65,NW,315,0.0,0.0,90,0.00,,---,0.00,VWS V14.01,2013-10-11 16:11:00,
2013-10-11 09:16:00,40.3,36.1,30.65,NW,315,0.0,0.0,85,0.00,,---,0.00,VWS V14.01,2013-10-11 16:16:00,
2013-10-11 09:21:00,41.0,34.7,30.65,NW,315,0.0,0.0,78,0.00,,---,0.00,VWS V14.01,2013-10-11 16:21:00,
2013-10-11 09:26:00,41.7,34.1,30.65,NW,315,0.0,0.0,74,0.00,,---,0.00,VWS V14.01,2013-10-11 16:26:00,
2013-10-11 09:31:00,41.7,34.1,30.65,NW,315,0.0,0.0,74,0.00,,---,0.00,VWS V14.01,2013-10-11 16:31:00,
2013-10-11 09:36:00,43.3,32.4,30.65,NW,315,0.0,2.7,65,0.00,,---,0.00,VWS V14.01,2013-10-11 16:36:00,
2013-10-11 09:41:00,43.9,32.5,30.65,NW,315,0.0,0.0,64,0.00,,---,0.00,VWS V14.01,2013-10-11 16:41:00,
2013-10-11 09:46:00,43.9,32.5,30.65,NW,315,0.0,0.0,64,0.00,,---,0.00,VWS V14.01,2013-10-11 16:46:00,
2013-10-11 09:51:00,43.9,32.5,30.65,NW,315,0.0,0.0,64,0.00,,---,0.00,VWS V14.01,2013-10-11 16:51:00,
2013-10-11 09:56:00,43.9,32.5,30.65,NW,315,0.0,0.0,64,0.00,,---,0.00,VWS V14.01,2013-10-11 16:56:00,
2013-10-11 10:01:00,48.2,31.9,30.65,NW,315,0.0,0.0,53,0.00,,---,0.00,VWS V14.01,2013-10-11 17:01:00,
2013-10-11 10:06:00,48.7,31.9,30.65,NW,315,0.0,2.2,52,0.00,,---,0.00,VWS V14.01,2013-10-11 17:06:00,
2013-10-11 10:11:00,48.9,31.6,30.65,NW,315,0.0,2.7,51,0.00,,---,0.00,VWS V14.01,2013-10-11 17:11:00,
2013-10-11 10:16:00,48.9,31.6,30.65,NW,315,3.1,3.1,51,0.00,,---,0.00,VWS V14.01,2013-10-11 17:16:00,
2013-10-11 10:21:00,48.7,31.0,30.65,NW,315,0.0,0.0,50,0.00,,---,0.00,VWS V14.01,2013-10-11 17:21:00,
2013-10-11 10:26:00,49.6,31.8,30.65,NW,315,2.7,2.7,50,0.00,,---,0.00,VWS V14.01,2013-10-11 17:26:00,
2013-10-11 10:31:00,49.5,31.6,30.65,NW,315,0.0,2.2,50,0.00,,---,0.00,VWS V14.01,2013-10-11 17:31:00,
2013-10-11 10:36:00,50.4,32.4,30.65,NW,315,0.0,2.2,50,0.00,,---,0.00,VWS V14.01,2013-10-11 17:36:00,
2013-10-11 10:41:00,50.2,31.8,30.65,NW,315,0.0,2.7,49,0.00,,---,0.00,VWS V14.01,2013-10-11 17:41:00,
2013-10-11 10:46:00,50.2,31.3,30.65,NW,315,2.2,3.6,48,0.00,,---,0.00,VWS V14.01,2013-10-11 17:46:00,
2013-10-11 10:51:00,49.8,30.9,30.65,NW,315,0.0,2.2,48,0.00,,---,0.00,VWS V14.01,2013-10-11 17:51:00,
2013-10-11 10:56:00,50.2,31.3,30.65,NW,315,0.0,0.0,48,0.00,,---,0.00,VWS V14.01,2013-10-11 17:56:00,
2013-10-11 11:01:00,50.7,31.8,30.65,ENE,68,4.0,5.4,48,0.00,,---,0.00,VWS V14.01,2013-10-11 18:01:00,
2013-10-11 11:06:00,49.8,31.4,30.65,NE,45,3.6,5.4,49,0.00,,---,0.00,VWS V14.01,2013-10-11 18:06:00,
2013-10-11 11:11:00,50.0,31.6,30.65,NE,45,0.0,2.2,49,0.00,,---,0.00,VWS V14.01,2013-10-11 18:11:00,
2013-10-11 11:16:00,50.0,31.6,30.65,NE,45,5.4,5.4,49,0.00,,---,0.00,VWS V14.01,2013-10-11 18:16:00,
2013-10-11 11:21:00,50.4,31.4,30.65,NE,45,3.6,3.6,48,0.00,,---,0.00,VWS V14.01,2013-10-11 18:21:00,
2013-10-11 11:26:00,50.4,31.4,30.65,NE,45,0.0,0.0,48,0.00,,---,0.00,VWS V14.01,2013-10-11 18:26:00,
2013-10-11 11:31:00,51.3,32.3,30.65,NE,45,0.0,0.0,48,0.00,,---,0.00,VWS V14.01,2013-10-11 18:31:00,
2013-10-11 11:36:00,51.3,31.7,30.65,NE,45,2.2,3.1,47,0.00,,---,0.00,VWS V14.01,2013-10-11 18:36:00,
2013-10-11 11:41:00,52.0,31.9,30.65,NE,45,0.0,0.0,46,0.00,,---,0.00,VWS V14.01,2013-10-11 18:41:00,
2013-10-11 11:46:00,52.3,32.2,30.65,NE,45,2.2,3.1,46,0.00,,---,0.00,VWS V14.01,2013-10-11 18:46:00,
2013-10-11 11:51:00,52.2,32.0,30.65,NE,45,0.0,0.0,46,0.00,,---,0.00,VWS V14.01,2013-10-11 18:51:00,
2013-10-11 11:56:00,52.0,31.9,30.65,NE,45,3.1,3.6,46,0.00,,---,0.00,VWS V14.01,2013-10-11 18:56:00,
2013-10-11 12:01:00,53.4,33.2,30.65,NE,45,0.0,2.2,46,0.00,,---,0.00,VWS V14.01,2013-10-11 19:01:00,
2013-10-11 12:06:00,52.9,31.6,30.65,NE,45,7.2,7.2,44,0.00,,---,0.00,VWS V14.01,2013-10-11 19:06:00,
2013-10-11 12:11:00,53.2,31.9,30.65,NE,45,3.6,3.6,44,0.00,,---,0.00,VWS V14.01,2013-10-11 19:11:00,
2013-10-11 12:16:00,52.9,31.6,30.65,NE,45,2.2,2.2,44,0.00,,---,0.00,VWS V14.01,2013-10-11 19:16:00,
2013-10-11 12:21:00,53.4,32.1,30.65,NE,45,4.9,4.9,44,0.00,,---,0.00,VWS V14.01,2013-10-11 19:21:00,
2013-10-11 12:26:00,53.4,31.5,30.62,NE,45,4.0,4.9,43,0.00,,---,0.00,VWS V14.01,2013-10-11 19:26:00,
2013-10-11 12:31:00,53.4,32.1,30.62,North,0,4.9,4.9,44,0.00,,---,0.00,VWS V14.01,2013-10-11 19:31:00,
2013-10-11 12:36:00,53.2,31.9,30.62,NNE,22,2.7,2.7,44,0.00,,---,0.00,VWS V14.01,2013-10-11 19:36:00,
2013-10-11 12:41:00,54.0,31.4,30.62,North,0,2.7,3.6,42,0.00,,---,0.00,VWS V14.01,2013-10-11 19:41:00,
2013-10-11 12:46:00,55.0,32.4,30.62,NNE,22,0.0,0.0,42,0.00,,---,0.00,VWS V14.01,2013-10-11 19:46:00,
2013-10-11 12:51:00,54.9,31.6,30.62,SW,225,3.1,3.1,41,0.00,,---,0.00,VWS V14.01,2013-10-11 19:51:00,
2013-10-11 12:56:00,55.0,31.2,30.62,SW,225,2.2,3.1,40,0.00,,---,0.00,VWS V14.01,2013-10-11 19:56:00,
2013-10-11 13:01:00,55.6,31.0,30.62,West,270,0.0,0.0,39,0.00,,---,0.00,VWS V14.01,2013-10-11 20:01:00,
2013-10-11 13:06:00,54.9,31.0,30.62,West,270,3.1,3.1,40,0.00,,---,0.00,VWS V14.01,2013-10-11 20:06:00,
2013-10-11 13:11:00,54.9,31.0,30.62,NNE,22,4.9,4.9,40,0.00,,---,0.00,VWS V14.01,2013-10-11 20:11:00,
2013-10-11 13:16:00,54.5,30.7,30.62,NE,45,2.7,3.1,40,0.00,,---,0.00,VWS V14.01,2013-10-11 20:16:00,
2013-10-11 13:21:00,54.1,30.4,30.62,NE,45,0.0,2.2,40,0.00,,---,0.00,VWS V14.01,2013-10-11 20:21:00,
2013-10-11 13:26:00,54.1,30.4,30.62,SW,225,2.7,2.7,40,0.00,,---,0.00,VWS V14.01,2013-10-11 20:26:00,
2013-10-11 13:31:00,54.5,30.1,30.62,SW,225,2.7,3.1,39,0.00,,---,0.00,VWS V14.01,2013-10-11 20:31:00,
2013-10-11 13:36:00,54.0,29.6,30.62,West,270,0.0,0.0,39,0.00,,---,0.00,VWS V14.01,2013-10-11 20:36:00,
2013-10-11 13:41:00,54.1,30.4,30.62,North,0,3.6,3.6,40,0.00,,---,0.00,VWS V14.01,2013-10-11 20:41:00,
2013-10-11 13:46:00,54.1,30.4,30.62,North,0,2.2,2.2,40,0.00,,---,0.00,VWS V14.01,2013-10-11 20:46:00,
2013-10-11 13:51:00,54.5,30.7,30.62,West,270,2.7,2.7,40,0.00,,---,0.00,VWS V14.01,2013-10-11 20:51:00,
2013-10-11 13:56:00,54.3,30.5,30.62,West,270,0.0,0.0,40,0.00,,---,0.00,VWS V14.01,2013-10-11 20:56:00,
2013-10-11 14:01:00,54.1,30.4,30.62,NNE,22,4.0,5.8,40,0.00,,---,0.00,VWS V14.01,2013-10-11 21:01:00,
2013-10-11 14:06:00,54.0,30.2,30.62,NE,45,4.0,4.0,40,0.00,,---,0.00,VWS V14.01,2013-10-11 21:06:00,
2013-10-11 14:11:00,53.8,30.6,30.62,NE,45,2.2,3.6,41,0.00,,---,0.00,VWS V14.01,2013-10-11 21:11:00,
2013-10-11 14:16:00,54.1,30.4,30.62,NE,45,3.6,3.6,40,0.00,,---,0.00,VWS V14.01,2013-10-11 21:16:00,
2013-10-11 14:21:00,54.3,30.5,30.62,WNW,292,0.0,2.2,40,0.00,,---,0.00,VWS V14.01,2013-10-11 21:21:00,
2013-10-11 14:26:00,54.5,30.7,30.62,NW,315,3.6,3.6,40,0.00,,---,0.00,VWS V14.01,2013-10-11 21:26:00,
2013-10-11 14:31:00,54.7,30.9,30.62,NW,315,0.0,0.0,40,0.00,,---,0.00,VWS V14.01,2013-10-11 21:31:00,
2013-10-11 14:36:00,54.5,30.7,30.62,NW,315,0.0,0.0,40,0.00,,---,0.00,VWS V14.01,2013-10-11 21:36:00,
2013-10-11 14:41:00,54.9,31.0,30.62,NW,315,0.0,0.0,40,0.00,,---,0.00,VWS V14.01,2013-10-11 21:41:00,
2013-10-11 14:46:00,54.7,30.2,30.62,NE,45,4.5,5.4,39,0.00,,---,0.00,VWS V14.01,2013-10-11 21:46:00,
2013-10-11 14:51:00,54.3,29.9,30.62,NE,45,3.6,3.6,39,0.00,,---,0.00,VWS V14.01,2013-10-11 21:51:00,
2013-10-11 14:56:00,54.3,29.9,30.62,NE,45,2.7,3.1,39,0.00,,---,0.00,VWS V14.01,2013-10-11 21:56:00,
2013-10-11 15:01:00,54.3,29.9,30.62,NE,45,3.6,3.6,39,0.00,,---,0.00,VWS V14.01,2013-10-11 22:01:00,
2013-10-11 15:06:00,54.5,30.7,30.62,NNE,22,0.0,0.0,40,0.00,,---,0.00,VWS V14.01,2013-10-11 22:06:00,
2013-10-11 15:11:00,54.3,29.9,30.62,North,0,3.6,4.9,39,0.00,,---,0.00,VWS V14.01,2013-10-11 22:11:00,
2013-10-11 15:16:00,54.5,30.1,30.62,NE,45,3.1,3.1,39,0.00,,---,0.00,VWS V14.01,2013-10-11 22:16:00,
2013-10-11 15:21:00,54.5,30.1,30.62,North,0,5.8,5.8,39,0.00,,---,0.00,VWS V14.01,2013-10-11 22:21:00,
2013-10-11 15:26:00,54.5,30.1,30.62,NE,45,5.4,5.8,39,0.00,,---,0.00,VWS V14.01,2013-10-11 22:26:00,
2013-10-11 15:31:00,54.9,30.4,30.62,NE,45,5.8,5.8,39,0.00,,---,0.00,VWS V14.01,2013-10-11 22:31:00,
2013-10-11 15:36:00,54.3,29.9,30.62,NE,45,3.1,4.0,39,0.00,,---,0.00,VWS V14.01,2013-10-11 22:36:00,
2013-10-11 15:41:00,54.1,29.8,30.62,NE,45,4.5,5.4,39,0.00,,---,0.00,VWS V14.01,2013-10-11 22:41:00,
2013-10-11 15:46:00,54.1,29.8,30.62,NE,45,6.3,6.3,39,0.00,,---,0.00,VWS V14.01,2013-10-11 22:46:00,
2013-10-11 15:51:00,54.0,29.6,30.62,NE,45,3.1,5.4,39,0.00,,---,0.00,VWS V14.01,2013-10-11 22:51:00,
2013-10-11 15:56:00,54.0,29.0,30.62,NE,45,3.1,4.9,38,0.00,,---,0.00,VWS V14.01,2013-10-11 22:56:00,
2013-10-11 16:01:00,54.1,29.1,30.62,NE,45,2.7,3.1,38,0.00,,---,0.00,VWS V14.01,2013-10-11 23:01:00,
2013-10-11 16:06:00,54.3,29.9,30.62,NE,45,4.9,4.9,39,0.00,,---,0.00,VWS V14.01,2013-10-11 23:06:00,
2013-10-11 16:11:00,54.5,30.1,30.62,North,0,3.6,3.6,39,0.00,,---,0.00,VWS V14.01,2013-10-11 23:11:00,
2013-10-11 16:16:00,54.5,30.1,30.62,North,0,3.6,4.0,39,0.00,,---,0.00,VWS V14.01,2013-10-11 23:16:00,
2013-10-11 16:21:00,54.1,29.8,30.62,NE,45,5.4,5.4,39,0.00,,---,0.00,VWS V14.01,2013-10-11 23:21:00,
2013-10-11 16:26:00,54.0,29.6,30.62,NE,45,4.0,5.4,39,0.00,,---,0.00,VWS V14.01,2013-10-11 23:26:00,
2013-10-11 16:31:00,54.1,29.8,30.62,NNE,22,4.0,4.0,39,0.00,,---,0.00,VWS V14.01,2013-10-11 23:31:00,
2013-10-11 16:36:00,54.0,29.6,30.62,North,0,4.0,4.9,39,0.00,,---,0.00,VWS V14.01,2013-10-11 23:36:00,
2013-10-11 16:41:00,54.0,30.2,30.62,NNW,338,5.8,7.6,40,0.00,,---,0.00,VWS V14.01,2013-10-11 23:41:00,
2013-10-11 16:46:00,53.8,30.0,30.62,NNE,22,3.6,4.9,40,0.00,,---,0.00,VWS V14.01,2013-10-11 23:46:00,
2013-10-11 16:51:00,53.6,29.9,30.62,North,0,3.1,4.9,40,0.00,,---,0.00,VWS V14.01,2013-10-11 23:51:00,
2013-10-11 16:56:00,53.8,30.0,30.62,North,0,4.9,5.4,40,0.00,,---,0.00,VWS V14.01,2013-10-11 23:56:00,
2013-10-11 17:01:00,53.6,29.9,30.62,NE,45,5.4,5.4,40,0.00,,---,0.00,VWS V14.01,2013-10-12 00:01:00,
2013-10-11 17:06:00,53.6,29.9,30.62,NNE,22,5.4,5.4,40,0.00,,---,0.00,VWS V14.01,2013-10-12 00:06:00,
2013-10-11 17:11:00,53.1,30.0,30.62,North,0,5.4,5.4,41,0.00,,---,0.00,VWS V14.01,2013-10-12 00:11:00,
2013-10-11 17:16:00,53.1,30.0,30.62,NE,45,3.1,3.1,41,0.00,,---,0.00,VWS V14.01,2013-10-12 00:16:00,
2013-10-11 17:21:00,52.9,29.8,30.62,North,0,3.6,3.6,41,0.00,,---,0.00,VWS V14.01,2013-10-12 00:21:00,
2013-10-11 17:26:00,52.7,29.7,30.62,North,0,4.9,4.9,41,0.00,,---,0.00,VWS V14.01,2013-10-12 00:26:00,
2013-10-11 17:31:00,52.5,30.1,30.62,North,0,2.7,4.0,42,0.00,,---,0.00,VWS V14.01,2013-10-12 00:31:00,
2013-10-11 17:36:00,52.3,30.0,30.62,North,0,2.7,4.0,42,0.00,,---,0.00,VWS V14.01,2013-10-12 00:36:00,
2013-10-11 17:41:00,52.2,29.8,30.62,NE,45,3.6,5.4,42,0.00,,---,0.00,VWS V14.01,2013-10-12 00:41:00,
2013-10-11 17:46:00,52.2,29.8,30.62,NE,45,3.6,4.5,42,0.00,,---,0.00,VWS V14.01,2013-10-12 00:46:00,
2013-10-11 17:51:00,51.8,30.0,30.62,NE,45,4.9,4.9,43,0.00,,---,0.00,VWS V14.01,2013-10-12 00:51:00,
2013-10-11 17:56:00,51.6,30.4,30.62,NE,45,2.2,2.7,44,0.00,,---,0.00,VWS V14.01,2013-10-12 00:56:00,
2013-10-11 18:01:00,51.4,30.3,30.62,NE,45,2.7,2.7,44,0.00,,---,0.00,VWS V14.01,2013-10-12 01:01:00,
2013-10-11 18:06:00,50.9,30.3,30.62,NE,45,2.2,2.2,45,0.00,,---,0.00,VWS V14.01,2013-10-12 01:06:00,
2013-10-11 18:11:00,50.7,30.2,30.62,NE,45,0.0,0.0,45,0.00,,---,0.00,VWS V14.01,2013-10-12 01:11:00,
2013-10-11 18:16:00,50.2,30.2,30.62,NE,45,0.0,0.0,46,0.00,,---,0.00,VWS V14.01,2013-10-12 01:16:00,
2013-10-11 18:21:00,49.8,30.4,30.62,NE,45,0.0,0.0,47,0.00,,---,0.00,VWS V14.01,2013-10-12 01:21:00,
2013-10-11 18:26:00,49.3,29.9,30.62,NE,45,0.0,0.0,47,0.00,,---,0.00,VWS V14.01,2013-10-12 01:26:00,
2013-10-11 18:31:00,48.7,29.9,30.62,NE,45,0.0,0.0,48,0.00,,---,0.00,VWS V14.01,2013-10-12 01:31:00,
2013-10-11 18:36:00,48.4,30.1,30.62,NE,45,0.0,0.0,49,0.00,,---,0.00,VWS V14.01,2013-10-12 01:36:00,
2013-10-11 18:41:00,47.8,30.1,30.62,NE,45,0.0,0.0,50,0.00,,---,0.00,VWS V14.01,2013-10-12 01:41:00,
2013-10-11 18:46:00,47.5,30.3,30.62,NE,45,0.0,0.0,51,0.00,,---,0.00,VWS V14.01,2013-10-12 01:46:00,
2013-10-11 18:51:00,47.8,31.1,30.62,NE,45,2.2,2.7,52,0.00,,---,0.00,VWS V14.01,2013-10-12 01:51:00,
2013-10-11 18:56:00,47.8,31.1,30.62,NE,45,0.0,0.0,52,0.00,,---,0.00,VWS V14.01,2013-10-12 01:56:00,
2013-10-11 19:01:00,47.8,31.1,30.62,NE,45,0.0,0.0,52,0.00,,---,0.00,VWS V14.01,2013-10-12 02:01:00,
2013-10-11 19:06:00,47.7,31.4,30.62,NE,45,0.0,0.0,53,0.00,,---,0.00,VWS V14.01,2013-10-12 02:06:00,
2013-10-11 19:11:00,47.5,31.2,30.62,NE,45,0.0,0.0,53,0.00,,---,0.00,VWS V14.01,2013-10-12 02:11:00,
2013-10-11 19:16:00,47.3,31.5,30.62,NE,45,0.0,0.0,54,0.00,,---,0.00,VWS V14.01,2013-10-12 02:16:00,
2013-10-11 19:21:00,47.1,31.8,30.62,NE,45,0.0,0.0,55,0.00,,---,0.00,VWS V14.01,2013-10-12 02:21:00,
2013-10-11 19:26:00,47.1,32.2,30.62,NE,45,0.0,0.0,56,0.00,,---,0.00,VWS V14.01,2013-10-12 02:26:00,
2013-10-11 19:31:00,46.9,32.5,30.62,NE,45,2.2,2.7,57,0.00,,---,0.00,VWS V14.01,2013-10-12 02:31:00,
2013-10-11 19:36:00,47.1,33.1,30.62,NE,45,0.0,0.0,58,0.00,,---,0.00,VWS V14.01,2013-10-12 02:36:00,
2013-10-11 19:41:00,46.9,33.4,30.62,NE,45,2.7,2.7,59,0.00,,---,0.00,VWS V14.01,2013-10-12 02:41:00,
2013-10-11 19:46:00,46.9,33.4,30.62,NE,45,0.0,0.0,59,0.00,,---,0.00,VWS V14.01,2013-10-12 02:46:00,
2013-10-11 19:51:00,46.8,33.6,30.62,NE,45,0.0,0.0,60,0.00,,---,0.00,VWS V14.01,2013-10-12 02:51:00,
2013-10-11 19:56:00,46.6,33.5,30.62,NE,45,0.0,0.0,60,0.00,,---,0.00,VWS V14.01,2013-10-12 02:56:00,
2013-10-11 20:01:00,46.4,33.7,30.62,NE,45,0.0,0.0,61,0.00,,---,0.00,VWS V14.01,2013-10-12 03:01:00,
2013-10-11 20:06:00,46.4,34.1,30.62,NE,45,0.0,0.0,62,0.00,,---,0.00,VWS V14.01,2013-10-12 03:06:00,
2013-10-11 20:11:00,46.2,33.9,30.59,NE,45,0.0,0.0,62,0.00,,---,0.00,VWS V14.01,2013-10-12 03:11:00,
2013-10-11 20:16:00,46.0,34.2,30.59,NE,45,0.0,0.0,63,0.00,,---,0.00,VWS V14.01,2013-10-12 03:16:00,
2013-10-11 20:21:00,45.5,33.7,30.59,NE,45,0.0,0.0,63,0.00,,---,0.00,VWS V14.01,2013-10-12 03:21:00,
2013-10-11 20:26:00,45.1,33.7,30.62,NE,45,0.0,0.0,64,0.00,,---,0.00,VWS V14.01,2013-10-12 03:26:00,
2013-10-11 20:31:00,44.8,33.8,30.62,NE,45,0.0,0.0,65,0.00,,---,0.00,VWS V14.01,2013-10-12 03:31:00,
2013-10-11 20:36:00,44.2,33.6,30.62,NE,45,0.0,0.0,66,0.00,,---,0.00,VWS V14.01,2013-10-12 03:36:00,
2013-10-11 20:41:00,43.5,33.3,30.59,NE,45,0.0,0.0,67,0.00,,---,0.00,VWS V14.01,2013-10-12 03:41:00,
2013-10-11 20:46:00,43.3,33.9,30.59,NE,45,0.0,0.0,69,0.00,,---,0.00,VWS V14.01,2013-10-12 03:46:00,
2013-10-11 20:51:00,42.4,33.4,30.59,NE,45,0.0,0.0,70,0.00,,---,0.00,VWS V14.01,2013-10-12 03:51:00,
2013-10-11 20:56:00,42.1,33.7,30.62,NE,45,0.0,0.0,72,0.00,,---,0.00,VWS V14.01,2013-10-12 03:56:00,
2013-10-11 21:01:00,41.7,34.1,30.62,NE,45,0.0,0.0,74,0.00,,---,0.00,VWS V14.01,2013-10-12 04:01:00,
2013-10-11 21:06:00,41.5,34.2,30.62,NE,45,0.0,0.0,75,0.00,,---,0.00,VWS V14.01,2013-10-12 04:06:00,
2013-10-11 21:11:00,41.2,34.2,30.62,NE,45,0.0,0.0,76,0.00,,---,0.00,VWS V14.01,2013-10-12 04:11:00,
2013-10-11 21:16:00,41.0,34.0,30.62,NE,45,0.0,0.0,76,0.00,,---,0.00,VWS V14.01,2013-10-12 04:16:00,
2013-10-11 21:21:00,40.6,34.0,30.62,NE,45,0.0,0.0,77,0.00,,---,0.00,VWS V14.01,2013-10-12 04:21:00,
2013-10-11 21:26:00,40.1,33.8,30.62,NE,45,0.0,0.0,78,0.00,,---,0.00,VWS V14.01,2013-10-12 04:26:00,
2013-10-11 21:31:00,39.9,34.0,30.62,NE,45,0.0,0.0,79,0.00,,---,0.00,VWS V14.01,2013-10-12 04:31:00,
2013-10-11 21:36:00,40.3,34.6,30.62,NE,45,0.0,0.0,80,0.00,,---,0.00,VWS V14.01,2013-10-12 04:36:00,
2013-10-11 21:41:00,40.3,34.6,30.62,NE,45,0.0,0.0,80,0.00,,---,0.00,VWS V14.01,2013-10-12 04:41:00,
2013-10-11 21:46:00,40.1,34.4,30.62,NE,45,2.2,2.2,80,0.00,,---,0.00,VWS V14.01,2013-10-12 04:46:00,
2013-10-11 21:51:00,39.7,34.1,30.62,NE,45,0.0,0.0,80,0.00,,---,0.00,VWS V14.01,2013-10-12 04:51:00,
2013-10-11 21:56:00,39.6,33.9,30.62,NE,45,0.0,0.0,80,0.00,,---,0.00,VWS V14.01,2013-10-12 04:56:00,
2013-10-11 22:01:00,39.4,34.0,30.62,NE,45,2.7,2.7,81,0.00,,---,0.00,VWS V14.01,2013-10-12 05:01:00,
2013-10-11 22:06:00,39.4,34.0,30.62,NE,45,0.0,0.0,81,0.00,,---,0.00,VWS V14.01,2013-10-12 05:06:00,
2013-10-11 22:11:00,38.8,33.5,30.62,NE,45,0.0,0.0,81,0.00,,---,0.00,VWS V14.01,2013-10-12 05:11:00,
2013-10-11 22:16:00,38.7,33.3,30.62,NE,45,0.0,0.0,81,0.00,,---,0.00,VWS V14.01,2013-10-12 05:16:00,
2013-10-11 22:21:00,37.9,33.0,30.62,NE,45,0.0,0.0,82,0.00,,---,0.00,VWS V14.01,2013-10-12 05:21:00,
2013-10-11 22:26:00,37.9,33.2,30.62,NE,45,0.0,2.2,83,0.00,,---,0.00,VWS V14.01,2013-10-12 05:26:00,
2013-10-11 22:31:00,37.4,32.7,30.62,NE,45,0.0,0.0,83,0.00,,---,0.00,VWS V14.01,2013-10-12 05:31:00,
2013-10-11 22:36:00,37.6,33.5,30.62,NE,45,2.7,2.7,85,0.00,,---,0.00,VWS V14.01,2013-10-12 05:36:00,
2013-10-11 22:41:00,37.2,33.1,30.62,NE,45,0.0,0.0,85,0.00,,---,0.00,VWS V14.01,2013-10-12 05:41:00,
2013-10-11 22:46:00,36.9,32.8,30.62,NE,45,0.0,0.0,85,0.00,,---,0.00,VWS V14.01,2013-10-12 05:46:00,
2013-10-11 22:51:00,36.5,32.4,30.62,NE,45,0.0,0.0,85,0.00,,---,0.00,VWS V14.01,2013-10-12 05:51:00,
2013-10-11 22:56:00,36.3,32.5,30.62,NE,45,0.0,0.0,86,0.00,,---,0.00,VWS V14.01,2013-10-12 05:56:00,
2013-10-11 23:01:00,36.1,32.7,30.62,NE,45,0.0,2.7,87,0.00,,---,0.00,VWS V14.01,2013-10-12 06:01:00,
2013-10-11 23:06:00,35.8,32.3,30.62,NE,45,0.0,0.0,87,0.00,,---,0.00,VWS V14.01,2013-10-12 06:06:00,
2013-10-11 23:11:00,36.3,33.4,30.59,NE,45,0.0,0.0,89,0.00,,---,0.00,VWS V14.01,2013-10-12 06:11:00,
2013-10-11 23:16:00,36.0,33.0,30.59,NE,45,0.0,0.0,89,0.00,,---,0.00,VWS V14.01,2013-10-12 06:16:00,
2013-10-11 23:21:00,36.3,34.0,30.59,NE,45,0.0,0.0,91,0.00,,---,0.00,VWS V14.01,2013-10-12 06:21:00,
2013-10-11 23:26:00,35.8,33.4,30.62,NE,45,0.0,0.0,91,0.00,,---,0.00,VWS V14.01,2013-10-12 06:26:00,
2013-10-11 23:31:00,35.6,33.2,30.62,NE,45,0.0,0.0,91,0.00,,---,0.00,VWS V14.01,2013-10-12 06:31:00,
2013-10-11 23:36:00,35.4,33.1,30.62,NE,45,0.0,0.0,91,0.00,,---,0.00,VWS V14.01,2013-10-12 06:36:00,
2013-10-11 23:41:00,35.1,32.7,30.59,NE,45,0.0,0.0,91,0.00,,---,0.00,VWS V14.01,2013-10-12 06:41:00,
2013-10-11 23:46:00,35.1,33.0,30.59,NE,45,0.0,0.0,92,0.00,,---,0.00,VWS V14.01,2013-10-12 06:46:00,
2013-10-11 23:51:00,35.2,33.4,30.59,NE,45,0.0,0.0,93,0.00,,---,0.00,VWS V14.01,2013-10-12 06:51:00,
2013-10-11 23:56:00,35.2,33.4,30.59,NE,45,0.0,0.0,93,0.00,,---,0.00,VWS V14.01,2013-10-12 06:56:00,